CW2285 Weather Reports


Display with metric or nautical units.
time (UTC)temp
F
wind
direction
speed
MPH
gust
MPH
rain 1hr
in
rain 24hr
in
rain mn
in
humidity
%
barometer
mb
20260903163003 86 262 2.0 6.0 0.00 0.00 0.00 22 1008.6
20260903162503 85 251 2.0 8.0 0.00 0.00 0.00 24 1008.6
20260903162004 85 245 4.0 9.0 0.00 0.00 0.00 23 1008.6
20260903161503 85 278 3.0 7.0 0.00 0.00 0.00 22 1008.6
20260903161003 85 282 3.0 7.0 0.00 0.00 0.00 23 1008.7
20260903160503 85 301 3.0 9.0 0.00 0.00 0.00 22 1008.8
20260903160003 85 264 3.0 7.0 0.00 0.00 0.00 23 1008.8
20260903155503 84 270 4.0 9.0 0.00 0.00 0.00 22 1008.8
20260903155003 84 280 3.0 7.0 0.00 0.00 0.00 23 1008.8
20260903154003 83 269 5.0 12.0 0.00 0.00 0.00 24 1008.8
20260903153503 83 290 5.0 8.0 0.00 0.00 0.00 22 1008.8
20260903153003 82 277 3.0 9.0 0.00 0.00 0.00 23 1008.8
20260903152503 82 285 4.0 9.0 0.00 0.00 0.00 23 1008.7
20260903152003 82 286 5.0 9.0 0.00 0.00 0.00 23 1008.7
20260903151503 81 280 5.0 9.0 0.00 0.00 0.00 24 1008.6
20260903151003 81 281 5.0 9.0 0.00 0.00 0.00 25 1008.7
20260903150503 81 282 5.0 10.0 0.00 0.00 0.00 25 1008.7
20260903150003 80 294 2.0 8.0 0.00 0.00 0.00 25 1008.7
20260903144503 79 281 5.0 12.0 0.00 0.00 0.00 27 1008.5
20260903144003 79 285 5.0 9.0 0.00 0.00 0.00 28 1008.5
20260903143504 78 285 3.0 9.0 0.00 0.00 0.00 27 1008.5
20260903143003 78 286 3.0 7.0 0.00 0.00 0.00 28 1008.5
20260903142003 77 287 2.0 6.0 0.00 0.00 0.00 28 1008.3
20260903141504 77 291 5.0 9.0 0.00 0.00 0.00 27 1008.2
20260903140504 77 280 6.0 13.0 0.00 0.00 0.00 29 1008.0
20260903140003 77 286 6.0 12.0 0.00 0.00 0.00 29 1008.0
20260903135502 77 285 4.0 10.0 0.00 0.00 0.00 29 1008.0
20260903135003 77 289 3.0 12.0 0.00 0.00 0.00 28 1007.9
20260903134503 77 287 5.0 12.0 0.00 0.00 0.00 29 1007.9
20260903134003 77 291 5.0 12.0 0.00 0.00 0.00 28 1007.8
20260903133503 77 298 4.0 10.0 0.00 0.00 0.00 27 1007.7
20260903133002 77 270 3.0 10.0 0.00 0.00 0.00 28 1007.6
20260903132503 77 286 5.0 13.0 0.00 0.00 0.00 28 1007.5
20260903132004 77 296 8.0 15.0 0.00 0.00 0.00 28 1007.4
20260903131503 77 307 3.0 9.0 0.00 0.00 0.00 27 1007.4
20260903130504 77 290 5.0 12.0 0.00 0.00 0.00 26 1007.4
20260903130003 77 274 3.0 9.0 0.00 0.00 0.00 27 1007.4
20260903125503 77 260 3.0 8.0 0.00 0.00 0.00 26 1007.4
20260903125003 77 304 2.0 10.0 0.00 0.00 0.00 26 1007.4
20260903124503 77 295 4.0 12.0 0.00 0.00 0.00 26 1007.4
20260903124003 77 283 3.0 12.0 0.00 0.00 0.00 27 1007.2
20260903123502 77 278 4.0 12.0 0.00 0.00 0.00 26 1007.2
20260903123003 77 287 7.0 12.0 0.00 0.00 0.00 27 1007.1
20260903122003 77 292 6.0 12.0 0.00 0.00 0.00 27 1006.9
20260903121503 77 294 7.0 14.0 0.00 0.00 0.00 27 1006.9
20260903121003 77 302 6.0 15.0 0.00 0.00 0.00 27 1007.0
20260903120503 77 287 7.0 14.0 0.00 0.00 0.00 27 1007.0
20260903120003 77 292 5.0 12.0 0.00 0.00 0.00 27 1007.0
20260903115503 77 300 6.0 15.0 0.00 0.00 0.00 28 1007.1
20260903115003 77 295 4.0 13.0 0.00 0.00 0.00 28 1007.1
20260903114503 77 302 8.0 17.0 0.00 0.00 0.00 28 1007.1
20260903114003 77 298 9.0 20.0 0.00 0.00 0.00 29 1007.1
20260903113503 77 290 9.0 16.0 0.00 0.00 0.00 29 1007.0
20260903112503 78 296 10.0 20.0 0.00 0.00 0.00 29 1006.9
20260903112003 78 295 10.0 20.0 0.00 0.00 0.00 28 1006.9
20260903111503 78 303 9.0 17.0 0.00 0.00 0.00 28 1006.9
20260903110504 78 307 7.0 16.0 0.00 0.00 0.00 29 1006.9
20260903110004 78 295 7.0 13.0 0.00 0.00 0.00 30 1006.9
20260903105503 78 303 7.0 20.0 0.00 0.00 0.00 29 1006.9
20260903105003 78 305 10.0 20.0 0.00 0.00 0.00 30 1007.0
20260903104503 78 293 10.0 18.0 0.00 0.00 0.00 31 1006.9
20260903104004 78 291 9.0 20.0 0.00 0.00 0.00 31 1007.0
20260903103503 78 284 9.0 18.0 0.00 0.00 0.00 31 1007.0
20260903103003 78 297 8.0 18.0 0.00 0.00 0.00 31 1007.1
20260903102003 78 286 12.0 24.0 0.00 0.00 0.00 30 1007.0
20260903101503 78 292 10.0 17.0 0.00 0.00 0.00 29 1007.0
20260903101003 78 286 12.0 23.0 0.00 0.00 0.00 29 1007.0
20260903100503 79 288 10.0 20.0 0.00 0.00 0.00 28 1007.0
20260903100003 79 286 9.0 21.0 0.00 0.00 0.00 29 1007.0
20260903095503 79 298 9.0 16.0 0.00 0.00 0.00 28 1007.0
20260903095002 79 293 8.0 16.0 0.00 0.00 0.00 27 1007.2
20260903094003 79 290 12.0 20.0 0.00 0.00 0.00 27 1007.3
20260903093504 79 286 6.0 15.0 0.00 0.00 0.00 28 1007.4
20260903093003 78 293 7.0 15.0 0.00 0.00 0.00 29 1007.4
20260903092503 78 303 10.0 16.0 0.00 0.00 0.00 29 1007.4
20260903092003 79 298 7.0 17.0 0.00 0.00 0.00 29 1007.4
20260903091003 79 302 10.0 20.0 0.00 0.00 0.00 29 1007.4
20260903090003 78 308 7.0 18.0 0.00 0.00 0.00 31 1007.4
20260903085003 78 305 9.0 17.0 0.00 0.00 0.00 32 1007.5
20260903084504 78 302 9.0 20.0 0.00 0.00 0.00 32 1007.5
20260903084004 79 298 10.0 18.0 0.00 0.00 0.00 32 1007.6
20260903083503 79 281 11.0 22.0 0.00 0.00 0.00 31 1007.7
20260903083003 79 302 9.0 16.0 0.00 0.00 0.00 32 1007.6
20260903082503 79 296 8.0 17.0 0.00 0.00 0.00 32 1007.6
20260903082003 79 297 9.0 17.0 0.00 0.00 0.00 32 1007.7
20260903081503 79 292 10.0 18.0 0.00 0.00 0.00 32 1007.7
20260903081002 79 298 9.0 16.0 0.00 0.00 0.00 32 1007.8
20260903080503 79 297 7.0 17.0 0.00 0.00 0.00 32 1007.8
20260903080003 79 302 9.0 16.0 0.00 0.00 0.00 32 1007.8
20260903075504 79 297 9.0 18.0 0.00 0.00 0.00 32 1007.7
20260903075003 79 306 10.0 17.0 0.00 0.00 0.00 31 1007.7
20260903074003 79 300 10.0 20.0 0.00 0.00 0.00 33 1007.7
20260903073503 79 298 10.0 17.0 0.00 0.00 0.00 33 1007.7
20260903073003 79 303 9.0 20.0 0.00 0.00 0.00 33 1007.7
20260903072503 79 288 9.0 20.0 0.00 0.00 0.00 33 1007.5
20260903072004 80 308 9.0 20.0 0.00 0.00 0.00 33 1007.5
20260903071503 80 298 10.0 18.0 0.00 0.00 0.00 32 1007.5
20260903071004 80 313 6.0 20.0 0.00 0.00 0.00 32 1007.7
20260903070504 80 300 8.0 13.0 0.00 0.00 0.00 32 1007.6
20260903070003 79 309 5.0 16.0 0.00 0.00 0.00 33 1007.7
20260903065503 79 305 6.0 14.0 0.00 0.00 0.00 32 1007.6
20260903065003 80 304 6.0 15.0 0.00 0.00 0.00 32 1007.5
20260903064003 80 306 8.0 18.0 0.00 0.00 0.00 32 1007.7
20260903063503 80 314 10.0 21.0 0.00 0.00 0.00 32 1007.6
20260903061503 80 313 8.0 16.0 0.00 0.00 0.00 32 1007.8
20260903061003 81 296 8.0 16.0 0.00 0.00 0.00 31 1007.8
20260903060503 81 303 9.0 17.0 0.00 0.00 0.00 31 1007.8
20260903060004 81 307 8.0 20.0 0.00 0.00 0.00 30 1007.8
20260903055503 81 305 9.0 15.0 0.00 0.00 0.00 31 1007.8
20260903055003 81 303 4.0 12.0 0.00 0.00 0.00 31 1007.9
20260903053003 82 304 5.0 13.0 0.00 0.00 0.00 30 1007.8
20260903052503 82 302 6.0 14.0 0.00 0.00 0.00 30 1007.8
20260903052004 82 308 5.0 16.0 0.00 0.00 0.00 30 1007.9
20260903051504 82 304 4.0 12.0 0.00 0.00 0.00 31 1007.9
20260903051003 82 313 5.0 10.0 0.00 0.00 0.00 29 1007.8
20260903050003 83 327 4.0 8.0 0.00 0.00 0.00 28 1007.7
20260903045503 84 304 3.0 12.0 0.00 0.00 0.00 27 1007.6
20260903044503 84 298 8.0 15.0 0.00 0.00 0.00 28 1007.5
20260903044003 84 292 9.0 18.0 0.00 0.00 0.00 28 1007.4
20260903043503 84 295 9.0 16.0 0.00 0.00 0.00 28 1007.4
20260903043003 84 288 8.0 20.0 0.00 0.00 0.00 29 1007.4
20260903042503 84 297 10.0 20.0 0.00 0.00 0.00 28 1007.4
20260903042002 84 298 9.0 18.0 0.00 0.00 0.00 29 1007.3
20260903041004 84 290 10.0 18.0 0.00 0.00 0.00 29 1007.3
20260903040503 85 296 11.0 20.0 0.00 0.00 0.00 28 1007.3
20260903035503 85 291 8.0 18.0 0.00 0.00 0.00 28 1007.0
20260903035003 86 301 7.0 15.0 0.00 0.00 0.00 26 1006.9
20260903034503 86 308 5.0 12.0 0.00 0.00 0.00 25 1006.9
20260903034003 87 307 9.0 17.0 0.00 0.00 0.00 24 1006.9
20260903033503 87 311 6.0 16.0 0.00 0.00 0.00 24 1006.8
20260903033003 87 296 9.0 17.0 0.00 0.00 0.00 23 1006.7
20260903032503 87 289 7.0 20.0 0.00 0.00 0.00 23 1006.6
20260903032003 88 298 7.0 20.0 0.00 0.00 0.00 21 1006.5
20260903031503 88 296 5.0 14.0 0.00 0.00 0.00 21 1006.4
20260903031002 88 300 9.0 17.0 0.00 0.00 0.00 23 1006.3
20260903030503 89 290 8.0 18.0 0.00 0.00 0.00 23 1006.3
20260903030003 89 305 9.0 15.0 0.00 0.00 0.00 22 1006.3
20260903025503 90 292 10.0 18.0 0.00 0.00 0.00 21 1006.1
20260903025004 90 293 7.0 18.0 0.00 0.00 0.00 20 1006.1
20260903024503 90 301 9.0 15.0 0.00 0.00 0.00 21 1006.0
20260903024004 91 287 7.0 18.0 0.00 0.00 0.00 21 1006.0
20260903023504 91 294 10.0 21.0 0.00 0.00 0.00 20 1005.8
20260903022503 92 293 12.0 23.0 0.00 0.00 0.00 19 1005.9
20260903022004 92 294 11.0 23.0 0.00 0.00 0.00 18 1005.8
20260903021503 92 281 6.0 15.0 0.00 0.00 0.00 18 1005.8
20260903020003 93 292 7.0 18.0 0.00 0.00 0.00 17 1005.9
20260903015503 94 294 7.0 14.0 0.00 0.00 0.00 16 1005.9
20260903015004 94 286 7.0 14.0 0.00 0.00 0.00 15 1005.9
20260903014503 94 295 7.0 15.0 0.00 0.00 0.00 16 1005.9
20260903014003 95 294 6.0 18.0 0.00 0.00 0.00 15 1005.9
20260903013503 95 289 7.0 15.0 0.00 0.00 0.00 14 1006.0
20260903013004 96 298 9.0 17.0 0.00 0.00 0.00 13 1006.0
20260903012503 96 293 6.0 13.0 0.00 0.00 0.00 12 1006.0
20260903012003 97 278 7.0 12.0 0.00 0.00 0.00 13 1006.0
20260903011503 97 298 5.0 10.0 0.00 0.00 0.00 13 1006.0
20260903011004 97 289 9.0 16.0 0.00 0.00 0.00 13 1005.9
20260903010503 97 294 5.0 14.0 0.00 0.00 0.00 12 1006.0
20260903010003 98 303 5.0 15.0 0.00 0.00 0.00 11 1006.1
20260903005003 98 300 7.0 13.0 0.00 0.00 0.00 11 1006.0
20260903004503 98 295 6.0 13.0 0.00 0.00 0.00 10 1006.1
20260903004003 98 299 7.0 12.0 0.00 0.00 0.00 10 1006.1
20260903003503 98 295 7.0 16.0 0.00 0.00 0.00 10 1006.0
20260903003004 99 300 7.0 15.0 0.00 0.00 0.00 11 1006.0
20260903002503 99 300 9.0 18.0 0.00 0.00 0.00 10 1006.1
20260903001504 100 295 5.0 9.0 0.00 0.00 0.00 9 1006.3
20260903001003 100 289 4.0 10.0 0.00 0.00 0.00 10 1006.3
20260903000503 100 301 5.0 12.0 0.00 0.00 0.00 9 1006.4
20260903000003 101 292 7.0 13.0 0.00 0.00 0.00 9 1006.4
20260902235503 100 309 4.0 12.0 0.00 0.00 0.00 9 1006.4
20260902235004 100 301 4.0 12.0 0.00 0.00 0.00 10 1006.5
20260902234503 100 285 7.0 13.0 0.00 0.00 0.00 9 1006.4
20260902234003 100 286 6.0 13.0 0.00 0.00 0.00 9 1006.5
20260902233503 101 242 9.0 14.0 0.00 0.00 0.00 9 1006.5
20260902233003 101 329 6.0 12.0 0.00 0.00 0.00 9 1006.6
20260902232503 101 297 5.0 13.0 0.00 0.00 0.00 9 1006.8
20260902232003 101 295 5.0 13.0 0.00 0.00 0.00 9 1006.8
20260902231504 101 298 5.0 12.0 0.00 0.00 0.00 9 1006.8
20260902231004 100 356 5.0 10.0 0.00 0.00 0.00 10 1006.8
20260902230503 101 297 4.0 13.0 0.00 0.00 0.00 9 1006.8
20260902230003 101 280 8.0 17.0 0.00 0.00 0.00 9 1006.8
20260902225503 101 288 6.0 14.0 0.00 0.00 0.00 9 1006.9
20260902225004 101 297 4.0 12.0 0.00 0.00 0.00 9 1006.9
20260902224503 101 299 6.0 12.0 0.00 0.00 0.00 9 1006.9
20260902223503 102 258 6.0 14.0 0.00 0.00 0.00 9 1007.1
20260902223004 102 329 5.0 12.0 0.00 0.00 0.00 9 1007.1
20260902222503 102 285 3.0 12.0 0.00 0.00 0.00 9 1007.3
20260902222003 101 278 5.0 10.0 0.00 0.00 0.00 9 1007.4
20260902221503 101 33 2.0 8.0 0.00 0.00 0.00 8 1007.4
20260902221003 101 264 4.0 8.0 0.00 0.00 0.00 9 1007.4
20260902220004 101 225 2.0 5.0 0.00 0.00 0.00 11 1007.5
20260902215003 100 356 2.0 3.0 0.00 0.00 0.00 11 1007.7
20260902214003 100 20 2.0 5.0 0.00 0.00 0.00 9 1007.9
20260902213503 101 69 5.0 9.0 0.00 0.00 0.00 9 1007.9
20260902213003 101 118 6.0 10.0 0.00 0.00 0.00 9 1007.9
20260902212504 100 117 5.0 8.0 0.00 0.00 0.00 9 1008.0
20260902212003 99 174 1.0 6.0 0.00 0.00 0.00 9 1008.0
20260902211503 100 132 3.0 8.0 0.00 0.00 0.00 9 1008.1
20260902211003 100 88 5.0 8.0 0.00 0.00 0.00 10 1008.2
20260902210504 99 124 4.0 8.0 0.00 0.00 0.00 10 1008.2
20260902210003 100 132 3.0 7.0 0.00 0.00 0.00 10 1008.3
20260902205504 100 184 1.0 3.0 0.00 0.00 0.00 10 1008.4
20260902205003 98 275 0.0 3.0 0.00 0.00 0.00 11 1008.4
20260902204503 98 240 2.0 6.0 0.00 0.00 0.00 11 1008.5
20260902203503 98 146 2.0 7.0 0.00 0.00 0.00 10 1008.7
20260902203003 98 105 3.0 12.0 0.00 0.00 0.00 11 1008.7
20260902202003 97 164 5.0 9.0 0.00 0.00 0.00 10 1009.0
20260902201503 98 142 5.0 9.0 0.00 0.00 0.00 10 1009.0
20260902200504 98 46 5.0 10.0 0.00 0.00 0.00 11 1009.1
20260902200003 98 105 3.0 9.0 0.00 0.00 0.00 11 1009.1
20260902195503 97 124 3.0 9.0 0.00 0.00 0.00 12 1009.2
20260902195003 98 113 4.0 8.0 0.00 0.00 0.00 12 1009.3
20260902194503 97 85 5.0 8.0 0.00 0.00 0.00 11 1009.4
20260902194003 97 107 6.0 12.0 0.00 0.00 0.00 12 1009.5
20260902193503 96 243 3.0 7.0 0.00 0.00 0.00 12 1009.5
20260902193003 96 272 3.0 5.0 0.00 0.00 0.00 14 1009.5
20260902192503 95 172 2.0 10.0 0.00 0.00 0.00 12 1009.6
20260902192004 96 125 2.0 8.0 0.00 0.00 0.00 12 1009.5
20260902191503 95 111 5.0 8.0 0.00 0.00 0.00 13 1009.5
20260902190504 95 108 1.0 3.0 0.00 0.00 0.00 12 1009.6
20260902190004 96 112 6.0 9.0 0.00 0.00 0.00 12 1009.6
20260902185504 96 116 5.0 8.0 0.00 0.00 0.00 11 1009.6
20260902185003 95 129 1.0 7.0 0.00 0.00 0.00 11 1009.8
20260902184504 96 144 2.0 8.0 0.00 0.00 0.00 12 1009.9
20260902184003 96 118 3.0 8.0 0.00 0.00 0.00 13 1010.0
20260902183503 95 37 3.0 7.0 0.00 0.00 0.00 13 1010.0
20260902183004 95 100 5.0 7.0 0.00 0.00 0.00 12 1010.0
20260902182503 94 127 2.0 5.0 0.00 0.00 0.00 12 1010.0
20260902182003 94 61 0.0 5.0 0.00 0.00 0.00 13 1010.0
20260902181504 94 110 2.0 5.0 0.00 0.00 0.00 12 1010.1
20260902181003 94 178 2.0 5.0 0.00 0.00 0.00 14 1010.1
20260902180504 94 71 1.0 5.0 0.00 0.00 0.00 14 1010.1
20260902180006 94 83 6.0 9.0 0.00 0.00 0.00 13 1010.1
20260902175503 93 95 1.0 5.0 0.00 0.00 0.00 13 1010.2
20260902174503 92 97 3.0 8.0 0.00 0.00 0.00 14 1010.3
20260902174003 92 133 1.0 5.0 0.00 0.00 0.00 14 1010.3
20260902173003 92 214 1.0 3.0 0.00 0.00 0.00 15 1010.3
20260902172503 92 195 2.0 3.0 0.00 0.00 0.00 14 1010.3
20260902172003 92 101 2.0 3.0 0.00 0.00 0.00 13 1010.2
20260902171504 91 232 3.0 6.0 0.00 0.00 0.00 14 1010.2
20260902171003 91 136 1.0 5.0 0.00 0.00 0.00 14 1010.2
20260902170502 91 123 2.0 3.0 0.00 0.00 0.00 15 1010.1
20260902170003 90 236 1.0 3.0 0.00 0.00 0.00 15 1010.1
20260902165503 89 157 1.0 3.0 0.00 0.00 0.00 15 1010.1
20260902165003 89 202 2.0 5.0 0.00 0.00 0.00 16 1010.1
20260902164004 89 159 2.0 5.0 0.00 0.00 0.00 16 1010.0
20260902163503 89 139 2.0 5.0 0.00 0.00 0.00 16 1010.0